Flag for U.S.A. Weather past 2 weeks in Boston, Massachusetts, U.S.A.

Now
80 °F

Partly sunny.


Feels Like: 82 °F
Forecast: 72 / 84 °F
Wind: 10 mph from Southeast

Location: Logan International Airport

Current Time: Sep 1, 2014 at 3:14:06 PM

Latest Report: Sep 1, 2014 at 1:54 PM


Visibility: 10 mi

Pressure: 29.93 "Hg

Humidity: 64%

Dew point: 67 °F

Location of BostonLocation

Historic Weather in Boston — Graph

°F

Boston temperature yesterday

Maximum temperature yesterday: 85 °F (at 4:54 PM)
Minimum temperature yesterday: 67 °F (at 12:54 AM)
Average temperature yesterday: 76 °F

Past Weeks' High & Low Weather Summary

 TemperatureHumidityPressure
High90 °F (Aug 27, 1:54 PM)100% (Aug 31, 11:01 PM)30.31 "Hg (Aug 31, 11:01 PM)
Low58 °F (Aug 30, 4:54 AM)31% (Aug 28, 5:54 PM)29.75 "Hg (Aug 17, 3:54 PM)
Average70 °F68%30.03 "Hg
* Reported Aug 17 12:54 PM — Sep 1 12:54 PM, Boston, Weather by CustomWeather, © 2014

Note: Actual official high and low records may vary slightly from our data, if they occured in-between our weather recording intervals... More about our weather records

Advertising

Boston weather history for previous 24 hours

 ConditionsComfort  
Time TempWeatherWind HumidityBarometerVisibility
12:54 PM
Sep 1
84 °FBroken clouds.8 mph57%29.93 "Hg10 mi
11:54 AM84 °FScattered clouds.8 mph57%29.95 "Hg10 mi
10:54 AM83 °FScattered clouds.5 mph61%29.96 "Hg10 mi
9:54 AM81 °FScattered clouds.5 mph67%29.97 "Hg10 mi
8:54 AM77 °FBroken clouds.6 mph79%29.98 "Hg10 mi
7:54 AM73 °FBroken clouds.8 mph90%29.98 "Hg10 mi
6:54 AM73 °FMostly cloudy.8 mph88%29.98 "Hg10 mi
5:54 AM72 °FOvercast.8 mph94%29.97 "Hg10 mi
4:54 AM72 °FPassing clouds.8 mph93%29.96 "Hg10 mi
3:54 AM72 °FPassing clouds.9 mph93%29.95 "Hg10 mi
2:54 AM73 °FPassing clouds.13 mph90%29.94 "Hg10 mi
1:54 AM73 °FMostly cloudy.12 mph90%29.94 "Hg10 mi
12:54 AM74 °FMostly cloudy.9 mph94%29.94 "Hg10 mi
11:54 PM
Aug 31
74 °FMostly cloudy.7 mph97%29.95 "Hg7 mi
11:01 PM73 °FLight rain. Fog.9 mph100%29.95 "Hg6 mi
10:54 PM74 °FFog.8 mph97%29.94 "Hg6 mi
9:54 PM74 °FHeavy rain. Fog.9 mph94%29.96 "Hg1 mi
8:54 PM76 °FLight rain. Fog.10 mph91%29.97 "Hg5 mi
7:54 PM79 °FCloudy.12 mph77%29.95 "Hg10 mi
6:54 PM81 °FMostly cloudy.12 mph72%29.95 "Hg10 mi
5:54 PM83 °FCloudy.13 mph65%29.95 "Hg10 mi
4:54 PM85 °FMore clouds than sun.16 mph61%29.95 "Hg10 mi
3:54 PM84 °FPartly sunny.17 mph63%29.96 "Hg10 mi
Weather by CustomWeather, © 2014

See weather overviewHow to use our weather pages